This demonstration page uses our WeatherBlox Daily Observations layout. Learn more.

40.92945, -100.16068

Hourly Observations for August 7, 2017

Temp ( °F °C ) Dew Point ( °F °C ) Humidity (%) Winds ( mph kmh ) Pressure ( in mb ) Visibility ( mi km ) Precip ( " mm )
12:15 am 00:15 Partly Cloudy 65 18.1 61 16 88 88 S 6 9 30 1016 10 16.09344 0 0
12:35 am 00:35 Mostly Cloudy 64 18 61 16.3 90 90 S 5 7 30.03 1017 7 11.265408 0 0
12:55 am 00:55 Mostly Cloudy 64 18 61 16.2 89 89 SSE 3 6 30.03 1017 7 11.265408 0 0
1:15 am 01:15 Partly Cloudy 64 18 61 16.2 89 89 SE 3 6 30.03 1017 7 11.265408 0 0
1:35 am 01:35 Mostly Cloudy 65 18.1 61 16.2 89 89 Calm 30.03 1017 10 16.09344 0 0
1:55 am 01:55 Cloudy with Light Rain 64 18 62 16.4 90 90 W 3 6 30.03 1017 7 11.265408 0 0
2:15 am 02:15 Cloudy with Light Rain 64 17.9 62 16.5 92 92 Calm 30.06 1018 7 11.265408 0 0
2:35 am 02:35 Cloudy with Rain 64 17.8 62 16.6 93 93 Calm 30.06 1018 4 6.437376 0.01 0.254
2:55 am 02:55 Cloudy with Light Rain 64 17.7 62 16.6 93 93 Calm 30.06 1018 5 8.04672 0.02 0.508
3:15 am 03:15 Cloudy with Rain 64 17.7 62 16.6 93 93 Calm 30.06 1018 4 6.437376 0.02 0.508
3:35 am 03:35 Cloudy with Light Rain 64 17.7 62 16.6 93 93 S 5 7 30.06 1018 4 6.437376 0.07 1.778
3:55 am 03:55 Cloudy with Rain 64 17.6 62 16.5 93 93 SSW 7 11 30.09 1019 5 8.04672 0.09 2.286
4:15 am 04:15 Cloudy with Light Rain 64 17.5 61 16.2 92 92 Calm 30.03 1017 7 11.265408 0 0
4:35 am 04:35 Cloudy 64 17.5 61 16.1 92 92 Calm 30.09 1019 7 11.265408 0 0
4:55 am 04:55 Cloudy with Mist and Fog 64 17.5 61 16.3 93 93 Calm 30.09 1019 5 8.04672 0 0
5:15 am 05:15 Cloudy with Light Rain 64 17.5 61 16.3 93 93 Calm 30.09 1019 5 8.04672 0 0
5:35 am 05:35 Mostly Cloudy with Mist and Fog 64 17.5 62 16.5 94 94 Calm 30.09 1019 5 8.04672 0 0
5:55 am 05:55 Mostly Cloudy with Mist and Fog 63 17.2 61 16.3 94 94 Calm 30.09 1019 5 8.04672 0 0
6:15 am 06:15 Cloudy with Mist and Fog 63 17.3 61 16.3 94 94 Calm 30.09 1019 5 8.04672 0 0
6:35 am 06:35 Partly Cloudy with Mist and Fog 62 16.7 60 15.7 94 94 NNE 3 6 30.09 1019 4 6.437376 0 0
6:55 am 06:55 Partly Cloudy with Mist and Fog 61 16.2 60 15.3 94 94 NNE 6 9 30.12 1020 2 3.218688 0 0
7:15 am 07:15 Mostly Cloudy with Mist and Fog 61 16.3 60 15.5 95 95 NNE 6 9 30.12 1020 1.5 2.414016 0 0
7:35 am 07:35 Partly Cloudy with Mist and Fog 62 16.5 60 15.6 94 94 NNE 3 6 30.12 1020 2.5 4.02336 0 0
7:55 am 07:55 Sunny with Mist and Fog 62 16.7 61 16 96 96 NNE 5 7 30.12 1020 3 4.828032 0 0
8:15 am 08:15 Sunny with Mist and Fog 63 17.4 62 16.5 94 94 Calm 30.12 1020 4 6.437376 0 0
8:35 am 08:35 Sunny with Mist and Fog 64 17.7 61 16.2 91 91 Calm 30.12 1020 5 8.04672 0 0
8:55 am 08:55 Partly Cloudy with Mist and Fog 65 18.4 62 16.5 89 89 N 5 7 30.09 1019 5 8.04672 0.01 0.254
9:15 am 09:15 Partly Cloudy with Mist and Fog 65 18.5 62 16.6 89 89 NNW 3 6 30.12 1020 5 8.04672 0 0
9:35 am 09:35 Partly Cloudy 66 19 62 16.9 88 88 N 3 6 30.12 1020 7 11.265408 0 0
9:55 am 09:55 Mostly Cloudy 67 19.6 62 16.8 84 84 N 8 13 30.12 1020 10 16.09344 0 0
10:15 am 10:15 Mostly Cloudy 67 19.6 61 16.2 81 81 NNW 5 7 30.12 1020 10 16.09344 0 0
10:35 am 10:35 Mostly Cloudy 69 20.8 62 16.7 77 77 NNE 5 7 30.12 1020 10 16.09344 0 0
10:55 am 10:55 Mostly Cloudy 70 21.3 62 16.8 76 76 ENE 5 7 30.12 1020 10 16.09344 0 0
11:15 am 11:15 Cloudy 70 21.2 62 16.4 74 74 NNE 3 6 30.12 1020 10 16.09344 0 0
11:35 am 11:35 Cloudy 71 21.4 62 16.6 74 74 Calm 30.12 1020 10 16.09344 0 0
11:55 am 11:55 Mostly Cloudy 73 22.6 60 15.8 66 66 NNE 7 11 30.09 1019 10 16.09344 0 0
12:15 pm 12:15 Partly Cloudy 74 23.6 59 15 59 59 N 7 11 30.09 1019 10 16.09344 0 0
12:35 pm 12:35 Partly Cloudy 75 23.8 57 14.1 55 55 NE 7 11 30.09 1019 10 16.09344 0 0
12:55 pm 12:55 Partly Cloudy 75 24 58 14.2 54 54 NE 10 17 30.09 1019 10 16.09344 0 0
1:15 pm 13:15 Partly Cloudy 76 24.5 58 14.7 54 54 NE 5 7 30.09 1019 10 16.09344 0 0
1:35 pm 13:35 Mostly Cloudy 75 23.9 59 15.2 58 58 NNE 8 13 30.09 1019 10 16.09344 0 0
1:55 pm 13:55 Mostly Cloudy 76 24.5 59 14.8 55 55 ENE 7 11 30.09 1019 10 16.09344 0 0
2:15 pm 14:15 Mostly Cloudy 77 24.9 58 14.3 52 52 ENE 5 7 30.09 1019 10 16.09344 0 0
2:35 pm 14:35 Mostly Cloudy 76 24.3 57 13.7 52 52 NNE 5 7 30.09 1019 10 16.09344 0 0
2:55 pm 14:55 Mostly Cloudy 77 25.2 56 13.6 49 49 NNE 3 6 30.06 1018 10 16.09344 0 0
3:15 pm 15:15 Mostly Cloudy 77 25.2 55 12.6 46 46 E 9 15 30.06 1018 10 16.09344 0 0
3:35 pm 15:35 Mostly Cloudy 78 25.8 54 12.3 43 43 E 7 11 30.03 1017 10 16.09344 0 0
3:55 pm 15:55 Mostly Cloudy 78 25.3 54 12.2 44 44 ENE 6 9 30.03 1017 10 16.09344 0 0
4:15 pm 16:15 Mostly Cloudy 78 25.7 55 12.5 44 44 ENE 8 13 30.03 1017 10 16.09344 0 0
4:35 pm 16:35 Partly Cloudy 79 25.9 53 11.8 41 41 E 9 15 30.03 1017 10 16.09344 0 0
4:55 pm 16:55 Partly Cloudy 78 25.7 53 11.8 42 42 E 5 7 30.03 1017 10 16.09344 0 0
5:15 pm 17:15 Partly Cloudy 78 25.4 55 12.5 45 45 E 7 11 30.03 1017 10 16.09344 0 0
5:35 pm 17:35 Partly Cloudy 79 25.9 56 13.1 45 45 E 12 19 30.03 1017 10 16.09344 0 0
5:55 pm 17:55 Partly Cloudy 77 25.1 56 13.4 48 48 ESE 9 15 30.03 1017 10 16.09344 0 0
6:15 pm 18:15 Partly Cloudy 78 25.3 56 13.3 47 47 ESE 9 15 30.03 1017 10 16.09344 0 0
6:35 pm 18:35 Partly Cloudy 77 25 55 12.8 47 47 SE 7 11 30.03 1017 10 16.09344 0 0
6:55 pm 18:55 Sunny 76 24.5 56 13.3 50 50 ESE 9 15 30.06 1018 10 16.09344 0 0
7:15 pm 19:15 Partly Cloudy 76 24.6 56 13.6 50 50 ESE 8 13 30.06 1018 10 16.09344 0 0
7:35 pm 19:35 Partly Cloudy 75 24.1 56 13.6 52 52 E 8 13 30.06 1018 10 16.09344 0 0
7:55 pm 19:55 Sunny 74 23.5 56 13.3 53 53 E 8 13 30.06 1018 10 16.09344 0 0
8:15 pm 20:15 Partly Cloudy 73 22.9 58 14.4 59 59 SE 7 11 30.06 1018 10 16.09344 0 0
8:35 pm 20:35 Mostly Cloudy 73 22.5 59 14.8 62 62 SSE 5 7 30.06 1018 10 16.09344 0 0
8:55 pm 20:55 Cloudy 72 22 59 14.8 64 64 SE 6 9 30.09 1019 10 16.09344 0 0
9:15 pm 21:15 Cloudy 71 21.6 59 15.1 67 67 SE 6 9 30.12 1020 10 16.09344 0 0
9:35 pm 21:35 Mostly Cloudy 70 21.2 59 15.2 69 69 SE 7 11 30.12 1020 10 16.09344 0 0
9:55 pm 21:55 Mostly Cloudy 69 20.8 60 15.4 71 71 SE 5 7 30.12 1020 10 16.09344 0 0
10:15 pm 22:15 Cloudy 69 20.8 60 15.7 73 73 E 7 11 30.15 1021 10 16.09344 0 0
10:35 pm 22:35 Cloudy 69 20.5 59 15.2 72 72 ESE 7 11 30.15 1021 10 16.09344 0 0
10:55 pm 22:55 Partly Cloudy 67 19.7 58 14.7 73 73 E 8 13 30.15 1021 10 16.09344 0 0
11:15 pm 23:15 Clear 67 19.2 58 14.6 75 75 ESE 9 15 30.15 1021 10 16.09344 0 0
11:35 pm 23:35 Clear 65 18.4 58 14.6 79 79 ESE 6 9 30.18 1022 10 16.09344 0 0
11:55 pm 23:55 Clear 64 17.6 58 14.5 82 82 E 5 7 30.18 1022 10 16.09344 0 0

Powered by AerisWeather